TimePST,TemperatureF,Dew PointF,Humidity,Sea Level PressureIn,VisibilityMPH,Wind Direction,Wind SpeedMPH,Gust SpeedMPH,PrecipitationIn,Events,Conditions,WindDirDegrees,DateUTC
12:15 AM,23.0,21.2,93,29.82,10.0,Calm,Calm,-,N/A,,Clear,0,2012-12-14 08:15:00
12:35 AM,21.2,19.4,93,29.82,10.0,Calm,Calm,-,N/A,,Partly Cloudy,0,2012-12-14 08:35:00
12:55 AM,23.0,21.2,93,29.81,10.0,Calm,Calm,-,N/A,,Clear,0,2012-12-14 08:55:00
1:15 AM,24.8,23.0,93,29.80,10.0,Calm,Calm,-,N/A,,Clear,0,2012-12-14 09:15:00
1:35 AM,24.8,21.2,86,29.80,10.0,Calm,Calm,-,N/A,,Clear,0,2012-12-14 09:35:00
1:55 AM,21.2,19.4,93,29.79,9.0,Calm,Calm,-,N/A,,Clear,0,2012-12-14 09:55:00
2:15 AM,21.2,21.2,100,29.79,10.0,Calm,Calm,-,N/A,,Clear,0,2012-12-14 10:15:00
2:55 AM,21.2,19.4,93,29.78,10.0,Calm,Calm,-,N/A,,Clear,0,2012-12-14 10:55:00
3:15 AM,21.2,19.4,93,29.78,10.0,ENE,3.5,-,N/A,,Scattered Clouds,60,2012-12-14 11:15:00
3:35 AM,21.2,21.2,100,29.77,10.0,Calm,Calm,-,N/A,,Mostly Cloudy,0,2012-12-14 11:35:00
3:55 AM,23.0,21.2,93,29.77,10.0,ENE,4.6,-,N/A,,Overcast,60,2012-12-14 11:55:00
4:15 AM,24.8,21.2,86,29.76,10.0,ENE,4.6,-,N/A,,Overcast,60,2012-12-14 12:15:00
4:35 AM,24.8,23.0,93,29.76,10.0,Calm,Calm,-,N/A,,Overcast,0,2012-12-14 12:35:00
4:55 AM,26.6,23.0,86,29.75,10.0,NE,4.6,-,N/A,,Overcast,40,2012-12-14 12:55:00
5:15 AM,24.8,23.0,93,29.75,10.0,NNE,4.6,-,N/A,,Overcast,20,2012-12-14 13:15:00
5:35 AM,26.6,24.8,93,29.76,10.0,North,3.5,-,N/A,,Overcast,10,2012-12-14 13:35:00
5:55 AM,26.6,26.6,100,29.76,10.0,Calm,Calm,-,N/A,,Overcast,0,2012-12-14 13:55:00
6:15 AM,26.6,24.8,93,29.75,10.0,Calm,Calm,-,N/A,,Overcast,0,2012-12-14 14:15:00
6:35 AM,26.6,24.8,93,29.76,10.0,Calm,Calm,-,N/A,,Overcast,0,2012-12-14 14:35:00
6:55 AM,26.6,26.6,100,29.76,10.0,Calm,Calm,-,N/A,,Overcast,0,2012-12-14 14:55:00
7:15 AM,28.4,24.8,86,29.76,10.0,ESE,3.5,-,N/A,,Overcast,110,2012-12-14 15:15:00
7:35 AM,26.6,24.8,93,29.76,10.0,Calm,Calm,-,N/A,,Overcast,0,2012-12-14 15:35:00
7:55 AM,28.4,24.8,86,29.76,10.0,SSE,4.6,-,N/A,,Overcast,160,2012-12-14 15:55:00
8:15 AM,28.4,24.8,86,29.76,10.0,SSE,4.6,-,N/A,,Overcast,150,2012-12-14 16:15:00
8:35 AM,28.4,24.8,86,29.77,10.0,SSE,4.6,-,N/A,,Overcast,160,2012-12-14 16:35:00
8:55 AM,28.4,24.8,86,29.77,10.0,SSE,5.8,-,N/A,,Overcast,160,2012-12-14 16:55:00
9:15 AM,28.4,24.8,86,29.77,10.0,South,6.9,-,N/A,,Overcast,180,2012-12-14 17:15:00
9:35 AM,28.4,24.8,86,29.77,10.0,SSE,6.9,-,N/A,,Overcast,160,2012-12-14 17:35:00
9:55 AM,30.2,26.6,86,29.77,9.0,South,4.6,-,N/A,,Overcast,170,2012-12-14 17:55:00
10:15 AM,30.2,26.6,86,29.77,10.0,South,4.6,-,N/A,,Overcast,190,2012-12-14 18:15:00
10:35 AM,30.2,28.4,93,29.77,9.0,South,3.5,-,N/A,,Overcast,190,2012-12-14 18:35:00
10:55 AM,30.2,28.4,93,29.77,8.0,South,3.5,-,N/A,,Overcast,180,2012-12-14 18:55:00
11:15 AM,30.2,28.4,93,29.76,3.0,South,3.5,-,N/A,,Overcast,170,2012-12-14 19:15:00
11:35 AM,30.2,28.4,93,29.76,1.8,SSW,4.6,-,N/A,,Overcast,200,2012-12-14 19:35:00
11:55 AM,30.2,28.4,93,29.76,2.0,South,5.8,-,N/A,,Overcast,190,2012-12-14 19:55:00
12:15 PM,30.2,28.4,93,29.76,2.0,SSW,3.5,-,N/A,,Overcast,200,2012-12-14 20:15:00
12:35 PM,30.2,28.4,93,29.76,5.0,SSW,4.6,-,N/A,,Overcast,210,2012-12-14 20:35:00
12:55 PM,30.2,28.4,93,29.77,4.0,SSW,3.5,-,N/A,,Mostly Cloudy,200,2012-12-14 20:55:00
1:15 PM,30.2,28.4,93,29.77,3.0,SSW,3.5,-,N/A,,Overcast,200,2012-12-14 21:15:00
1:35 PM,30.2,28.4,93,29.77,9.0,South,3.5,-,N/A,,Overcast,190,2012-12-14 21:35:00
2:15 PM,30.2,28.4,93,29.78,9.0,South,4.6,-,N/A,,Overcast,170,2012-12-14 22:15:00
2:35 PM,30.2,30.2,100,29.78,3.0,South,5.8,-,N/A,,Overcast,190,2012-12-14 22:35:00
2:55 PM,30.2,28.4,93,29.78,2.5,South,4.6,-,N/A,,Overcast,190,2012-12-14 22:55:00
3:15 PM,30.2,28.4,93,29.79,4.0,SW,3.5,-,N/A,,Mostly Cloudy,220,2012-12-14 23:15:00
3:35 PM,30.2,28.4,93,29.80,4.0,Calm,Calm,-,N/A,,Overcast,0,2012-12-14 23:35:00
3:55 PM,30.2,28.4,93,29.81,3.0,Calm,Calm,-,N/A,,Overcast,0,2012-12-14 23:55:00
4:15 PM,30.2,30.2,100,29.81,10.0,Calm,Calm,-,N/A,,Overcast,0,2012-12-15 00:15:00
4:35 PM,30.2,30.2,100,29.82,10.0,Calm,Calm,-,N/A,,Overcast,0,2012-12-15 00:35:00
4:55 PM,30.2,28.4,93,29.83,7.0,Calm,Calm,-,N/A,,Overcast,0,2012-12-15 00:55:00
5:15 PM,30.2,28.4,93,29.83,5.0,Calm,Calm,-,N/A,,Overcast,0,2012-12-15 01:15:00
5:35 PM,30.2,28.4,93,29.83,7.0,Calm,Calm,-,N/A,,Overcast,0,2012-12-15 01:35:00
5:55 PM,30.2,28.4,93,29.84,9.0,Calm,Calm,-,N/A,,Overcast,0,2012-12-15 01:55:00
6:15 PM,30.2,30.2,100,29.84,5.0,Calm,Calm,-,N/A,,Overcast,0,2012-12-15 02:15:00
6:35 PM,30.2,28.4,93,29.84,5.0,Calm,Calm,-,N/A,,Overcast,0,2012-12-15 02:35:00
6:55 PM,30.2,28.4,93,29.85,4.0,Calm,Calm,-,N/A,,Overcast,0,2012-12-15 02:55:00
7:15 PM,30.2,28.4,93,29.85,5.0,Calm,Calm,-,N/A,,Overcast,0,2012-12-15 03:15:00
7:35 PM,30.2,28.4,93,29.85,5.0,Calm,Calm,-,N/A,,Overcast,0,2012-12-15 03:35:00
7:55 PM,30.2,28.4,93,29.86,8.0,WSW,3.5,-,N/A,,Overcast,250,2012-12-15 03:55:00
8:15 PM,30.2,28.4,93,29.86,7.0,WSW,3.5,-,N/A,,Overcast,240,2012-12-15 04:15:00
8:35 PM,30.2,28.4,93,29.86,9.0,Calm,Calm,-,N/A,,Overcast,0,2012-12-15 04:35:00
8:55 PM,30.2,28.4,93,29.86,10.0,SW,3.5,-,N/A,,Overcast,220,2012-12-15 04:55:00
9:15 PM,30.2,28.4,93,29.87,7.0,Calm,Calm,-,N/A,,Overcast,0,2012-12-15 05:15:00
9:35 PM,30.2,30.2,100,29.87,7.0,Calm,Calm,-,N/A,,Overcast,0,2012-12-15 05:35:00
9:55 PM,30.2,28.4,93,29.87,10.0,Calm,Calm,-,N/A,,Overcast,0,2012-12-15 05:55:00
10:15 PM,30.2,26.6,86,29.87,9.0,Calm,Calm,-,N/A,,Overcast,0,2012-12-15 06:15:00
10:35 PM,30.2,30.2,100,29.88,6.0,Calm,Calm,-,N/A,,Overcast,0,2012-12-15 06:35:00
10:55 PM,30.2,28.4,93,29.88,5.0,Calm,Calm,-,N/A,,Overcast,0,2012-12-15 06:55:00
11:15 PM,30.2,28.4,93,29.89,2.0,Calm,Calm,-,N/A,,Overcast,0,2012-12-15 07:15:00
11:35 PM,30.2,28.4,93,29.89,2.5,WSW,3.5,-,N/A,,Overcast,250,2012-12-15 07:35:00
11:55 PM,30.2,28.4,93,29.89,3.0,West,4.6,-,N/A,,Overcast,260,2012-12-15 07:55:00